Location: Peebles
(55.6412°N, 3.1714°W)
Time: 12:02:52
(UTC+00:00)

CUTE-I - Pass Details

Date: 18 December 2023
Orbit: 807 x 823 km, 98.7° (Epoch: 24 February)

Event Time Altitude Azimuth Distance (km) Brightness Sun altitude
Rises 07:04:00 0° 15° (NNE) 3,371 ? -11.8°
Reaches altitude 10° 07:06:22 10° 15° (NNE) 2,436 ? -11.5°
Maximum altitude 07:11:46 82° 289° (WNW) 839 ? -10.8°
Drops below altitude 10° 07:17:08 10° 203° (SSW) 2,420 ? -10.1°
Sets 07:19:28 0° 202° (SSW) 3,348 ? -9.8°
